Year,Month,Day,Hour,Minute,Value (Times are PST for temperature in C)
2010,08,20,00,00,11.90
2010,08,20,00,01,11.90
2010,08,20,00,02,11.90
2010,08,20,00,03,11.90
2010,08,20,00,04,11.80
2010,08,20,00,05,11.80
2010,08,20,00,06,11.80
2010,08,20,00,07,11.80
2010,08,20,00,08,11.80
2010,08,20,00,09,11.80
2010,08,20,00,10,11.80
2010,08,20,00,11,11.80
2010,08,20,00,12,11.80
2010,08,20,00,13,11.80
2010,08,20,00,14,11.80
2010,08,20,00,15,11.80
2010,08,20,00,16,11.70
2010,08,20,00,17,11.70
2010,08,20,00,18,11.70
2010,08,20,00,19,11.70
2010,08,20,00,20,11.70
2010,08,20,00,21,11.60
2010,08,20,00,22,11.60
2010,08,20,00,23,11.60
2010,08,20,00,24,11.60
2010,08,20,00,25,11.60
2010,08,20,00,26,11.60
2010,08,20,00,27,11.60
2010,08,20,00,28,11.60
2010,08,20,00,29,11.60
2010,08,20,00,30,11.60
2010,08,20,00,31,11.60
2010,08,20,00,32,11.60
2010,08,20,00,33,11.60
2010,08,20,00,34,11.60
2010,08,20,00,35,11.60
2010,08,20,00,36,11.60
2010,08,20,00,37,11.60
2010,08,20,00,38,11.60
2010,08,20,00,39,11.60
2010,08,20,00,40,11.40
2010,08,20,00,41,11.40
2010,08,20,00,42,11.40
2010,08,20,00,43,11.40
2010,08,20,00,44,11.40
2010,08,20,00,45,11.40
2010,08,20,00,46,11.40
2010,08,20,00,47,11.40
2010,08,20,00,48,11.40
2010,08,20,00,49,11.40
2010,08,20,00,50,11.40
2010,08,20,00,51,11.40
2010,08,20,00,52,11.40
2010,08,20,00,53,11.40
2010,08,20,00,54,11.40
2010,08,20,00,55,11.40
2010,08,20,00,56,11.40
2010,08,20,00,57,11.40
2010,08,20,00,58,11.40
2010,08,20,00,59,11.40
2010,08,20,01,00,11.40
2010,08,20,01,01,11.40
2010,08,20,01,02,11.30
2010,08,20,01,03,11.30
2010,08,20,01,04,11.30
2010,08,20,01,05,11.30
2010,08,20,01,06,11.30
2010,08,20,01,07,11.30
2010,08,20,01,08,11.30
2010,08,20,01,09,11.30
2010,08,20,01,10,11.30
2010,08,20,01,11,11.30
2010,08,20,01,12,11.20
2010,08,20,01,13,11.20
2010,08,20,01,14,11.20
2010,08,20,01,15,11.20
2010,08,20,01,16,11.20
2010,08,20,01,17,11.20
2010,08,20,01,18,11.10
2010,08,20,01,19,11.10
2010,08,20,01,20,11.10
2010,08,20,01,21,11.10
2010,08,20,01,22,11.10
2010,08,20,01,23,11.10
2010,08,20,01,24,11.10
2010,08,20,01,25,11.10
2010,08,20,01,26,11.10
2010,08,20,01,27,11.00
2010,08,20,01,28,10.90
2010,08,20,01,29,10.90
2010,08,20,01,30,10.90
2010,08,20,01,31,10.90
2010,08,20,01,32,10.80
2010,08,20,01,33,10.80
2010,08,20,01,34,10.80
2010,08,20,01,35,10.70
2010,08,20,01,36,10.70
2010,08,20,01,37,10.70
2010,08,20,01,38,10.60
2010,08,20,01,39,10.60
2010,08,20,01,40,10.60
2010,08,20,01,41,10.50
2010,08,20,01,42,10.40
2010,08,20,01,43,10.40
2010,08,20,01,44,10.40
2010,08,20,01,45,10.40
2010,08,20,01,46,10.30
2010,08,20,01,47,10.30
2010,08,20,01,48,10.20
2010,08,20,01,49,10.20
2010,08,20,01,50,10.20
2010,08,20,01,51,10.20
2010,08,20,01,52,10.10
2010,08,20,01,53,10.10
2010,08,20,01,54,10.10
2010,08,20,01,55,10.10
2010,08,20,01,56,10.00
2010,08,20,01,57,9.90
2010,08,20,01,58,9.90
2010,08,20,01,59,9.90
2010,08,20,02,00,9.90
2010,08,20,02,01,9.90
2010,08,20,02,02,9.80
2010,08,20,02,03,9.80
2010,08,20,02,04,9.80
2010,08,20,02,05,9.70
2010,08,20,02,06,9.70
2010,08,20,02,07,9.70
2010,08,20,02,08,9.70
2010,08,20,02,09,9.70
2010,08,20,02,10,9.70
2010,08,20,02,11,9.70
2010,08,20,02,12,9.60
2010,08,20,02,13,9.60
2010,08,20,02,14,9.60
2010,08,20,02,15,9.60
2010,08,20,02,16,9.50
2010,08,20,02,17,9.50
2010,08,20,02,18,9.50
2010,08,20,02,19,9.40
2010,08,20,02,20,9.40
2010,08,20,02,21,9.40
2010,08,20,02,22,9.40
2010,08,20,02,23,9.30
2010,08,20,02,24,9.30
2010,08,20,02,25,9.30
2010,08,20,02,26,9.20
2010,08,20,02,27,9.20
2010,08,20,02,28,9.20
2010,08,20,02,29,9.20
2010,08,20,02,30,9.20
2010,08,20,02,31,9.20
2010,08,20,02,32,9.10
2010,08,20,02,33,9.10
2010,08,20,02,34,9.10
2010,08,20,02,35,9.10
2010,08,20,02,36,9.10
2010,08,20,02,37,9.10
2010,08,20,02,38,9.00
2010,08,20,02,39,9.00
2010,08,20,02,40,9.00
2010,08,20,02,41,9.00
2010,08,20,02,42,9.00
2010,08,20,02,43,9.00
2010,08,20,02,44,9.00
2010,08,20,02,45,8.90
2010,08,20,02,46,8.90
2010,08,20,02,47,8.90
2010,08,20,02,48,8.90
2010,08,20,02,49,8.90
2010,08,20,02,50,8.90
2010,08,20,02,51,8.90
2010,08,20,02,52,8.90
2010,08,20,02,53,8.80
2010,08,20,02,54,8.80
2010,08,20,02,55,8.80
2010,08,20,02,56,8.70
2010,08,20,02,57,8.70
2010,08,20,02,58,8.70
2010,08,20,02,59,8.70
2010,08,20,03,00,8.70
2010,08,20,03,01,8.70
2010,08,20,03,02,8.70
2010,08,20,03,03,8.70
2010,08,20,03,04,8.70
2010,08,20,03,05,8.70
2010,08,20,03,06,8.70
2010,08,20,03,07,8.70
2010,08,20,03,08,8.70
2010,08,20,03,09,8.70
2010,08,20,03,10,8.70
2010,08,20,03,11,8.70
2010,08,20,03,12,8.70
2010,08,20,03,13,8.60
2010,08,20,03,14,8.60
2010,08,20,03,15,8.60
2010,08,20,03,16,8.60
2010,08,20,03,17,8.60
2010,08,20,03,18,8.60
2010,08,20,03,19,8.60
2010,08,20,03,20,8.60
2010,08,20,03,21,8.50
2010,08,20,03,22,8.50
2010,08,20,03,23,8.50
2010,08,20,03,24,8.50
2010,08,20,03,25,8.50
2010,08,20,03,26,8.50
2010,08,20,03,27,8.50
2010,08,20,03,28,8.50
2010,08,20,03,29,8.50
2010,08,20,03,30,8.50
2010,08,20,03,31,8.50
2010,08,20,03,32,8.50
2010,08,20,03,33,8.50
2010,08,20,03,34,8.40
2010,08,20,03,35,8.40
2010,08,20,03,36,8.40
2010,08,20,03,37,8.40
2010,08,20,03,38,8.40
2010,08,20,03,39,8.40
2010,08,20,03,40,8.40
2010,08,20,03,41,8.40
2010,08,20,03,42,8.40
2010,08,20,03,43,8.50
2010,08,20,03,44,8.50
2010,08,20,03,45,8.50
2010,08,20,03,46,8.50
2010,08,20,03,47,8.50
2010,08,20,03,48,8.50
2010,08,20,03,49,8.60
2010,08,20,03,50,8.60
2010,08,20,03,51,8.60
2010,08,20,03,52,8.70
2010,08,20,03,53,8.70
2010,08,20,03,54,8.70
2010,08,20,03,55,8.70
2010,08,20,03,56,8.70
2010,08,20,03,57,8.70
2010,08,20,03,58,8.80
2010,08,20,03,59,8.80
2010,08,20,04,00,8.80
2010,08,20,04,01,8.80
2010,08,20,04,02,8.90
2010,08,20,04,03,8.90
2010,08,20,04,04,8.90
2010,08,20,04,05,8.90
2010,08,20,04,06,9.00
2010,08,20,04,07,9.00
2010,08,20,04,08,9.00
2010,08,20,04,09,9.00
2010,08,20,04,10,9.00
2010,08,20,04,11,9.00
2010,08,20,04,12,9.00
2010,08,20,04,13,9.00
2010,08,20,04,14,9.10
2010,08,20,04,15,9.10
2010,08,20,04,16,9.10
2010,08,20,04,17,9.10
2010,08,20,04,18,9.10
2010,08,20,04,19,9.20
2010,08,20,04,20,9.20
2010,08,20,04,21,9.20
2010,08,20,04,22,9.20
2010,08,20,04,23,9.20
2010,08,20,04,24,9.20
2010,08,20,04,25,9.20
2010,08,20,04,26,9.20
2010,08,20,04,27,9.20
2010,08,20,04,28,9.30
2010,08,20,04,29,9.30
2010,08,20,04,30,9.30
2010,08,20,04,31,9.40
2010,08,20,04,32,9.40
2010,08,20,04,33,9.40
2010,08,20,04,34,9.40
2010,08,20,04,35,9.50
2010,08,20,04,36,9.50
2010,08,20,04,37,9.50
2010,08,20,04,38,9.60
2010,08,20,04,39,9.60
2010,08,20,04,40,9.60
2010,08,20,04,41,9.60
2010,08,20,04,42,9.60
2010,08,20,04,43,9.70
2010,08,20,04,44,9.70
2010,08,20,04,45,9.70
2010,08,20,04,46,9.70
2010,08,20,04,47,9.70
2010,08,20,04,48,9.70
2010,08,20,04,49,9.70
2010,08,20,04,50,9.70
2010,08,20,04,51,9.80
2010,08,20,04,52,9.90
2010,08,20,04,53,9.90
2010,08,20,04,54,9.90
2010,08,20,04,55,9.90
2010,08,20,04,56,9.90
2010,08,20,04,57,10.00
2010,08,20,04,58,10.10
2010,08,20,04,59,10.20
2010,08,20,05,00,10.30
2010,08,20,05,01,10.40
2010,08,20,05,02,10.40
2010,08,20,05,03,10.50
2010,08,20,05,04,10.60
2010,08,20,05,05,10.60
2010,08,20,05,06,10.70
2010,08,20,05,07,10.70
2010,08,20,05,08,10.80
2010,08,20,05,09,10.80
2010,08,20,05,10,10.80
2010,08,20,05,11,10.90
2010,08,20,05,12,10.90
2010,08,20,05,13,10.90
2010,08,20,05,14,10.90
2010,08,20,05,15,10.90
2010,08,20,05,16,10.90
2010,08,20,05,17,11.10
2010,08,20,05,18,11.10
2010,08,20,05,19,11.10
2010,08,20,05,20,11.10
2010,08,20,05,21,11.10
2010,08,20,05,22,11.10
2010,08,20,05,23,11.10
2010,08,20,05,24,11.10
2010,08,20,05,25,11.10
2010,08,20,05,26,11.10
2010,08,20,05,27,11.10
2010,08,20,05,28,11.10
2010,08,20,05,29,11.10
2010,08,20,05,30,11.10
2010,08,20,05,31,11.10
2010,08,20,05,32,11.10
2010,08,20,05,33,11.10
2010,08,20,05,34,11.10
2010,08,20,05,35,11.10
2010,08,20,05,36,11.10
2010,08,20,05,37,11.10
2010,08,20,05,38,11.10
2010,08,20,05,39,11.10
2010,08,20,05,40,11.10
2010,08,20,05,41,11.10
2010,08,20,05,42,11.10
2010,08,20,05,43,11.10
2010,08,20,05,44,11.10
2010,08,20,05,45,11.00
2010,08,20,05,46,10.90
2010,08,20,05,47,10.90
2010,08,20,05,48,10.90
2010,08,20,05,49,10.90
2010,08,20,05,50,10.90
2010,08,20,05,51,10.90
2010,08,20,05,52,10.90
2010,08,20,05,53,10.90
2010,08,20,05,54,10.90
2010,08,20,05,55,10.90
2010,08,20,05,56,10.90
2010,08,20,05,57,10.90
2010,08,20,05,58,10.90
2010,08,20,05,59,10.90
2010,08,20,06,00,10.90
2010,08,20,06,01,10.90
2010,08,20,06,02,10.90
2010,08,20,06,03,10.90
2010,08,20,06,04,10.90
2010,08,20,06,05,10.90
2010,08,20,06,06,10.90
2010,08,20,06,07,10.90
2010,08,20,06,08,10.90
2010,08,20,06,09,10.90
2010,08,20,06,10,10.90
2010,08,20,06,11,10.90
2010,08,20,06,12,10.90
2010,08,20,06,13,10.90
2010,08,20,06,14,10.90
2010,08,20,06,15,10.90
2010,08,20,06,16,10.90
2010,08,20,06,17,10.90
2010,08,20,06,18,10.90
2010,08,20,06,19,10.90
2010,08,20,06,20,10.90
2010,08,20,06,21,10.90
2010,08,20,06,22,10.90
2010,08,20,06,23,10.90
2010,08,20,06,24,10.90
2010,08,20,06,25,10.90
2010,08,20,06,26,10.90
2010,08,20,06,27,10.90
2010,08,20,06,28,10.90
2010,08,20,06,29,10.90
2010,08,20,06,30,10.90
2010,08,20,06,31,10.90
2010,08,20,06,32,10.90
2010,08,20,06,33,10.90
2010,08,20,06,34,10.90
2010,08,20,06,35,10.90
2010,08,20,06,36,10.90
2010,08,20,06,37,10.90
2010,08,20,06,38,10.90
2010,08,20,06,39,10.90
2010,08,20,06,40,10.90
2010,08,20,06,41,11.00
2010,08,20,06,42,11.10
2010,08,20,06,43,11.10
2010,08,20,06,44,11.10
2010,08,20,06,45,11.10
2010,08,20,06,46,11.10
2010,08,20,06,47,11.10
2010,08,20,06,48,11.10
2010,08,20,06,49,11.10
2010,08,20,06,50,11.10
2010,08,20,06,51,11.10
2010,08,20,06,52,11.10
2010,08,20,06,53,11.10
2010,08,20,06,54,11.10
2010,08,20,06,55,11.10
2010,08,20,06,56,11.10
2010,08,20,06,57,11.10
2010,08,20,06,58,11.10
2010,08,20,06,59,11.10
2010,08,20,07,00,11.10
2010,08,20,07,01,11.10
2010,08,20,07,02,11.00
2010,08,20,07,03,10.90
2010,08,20,07,04,10.90
2010,08,20,07,05,10.90
2010,08,20,07,06,10.90
2010,08,20,07,07,10.80
2010,08,20,07,08,10.80
2010,08,20,07,09,10.70
2010,08,20,07,10,10.70
2010,08,20,07,11,10.70
2010,08,20,07,12,10.70
2010,08,20,07,13,10.60
2010,08,20,07,14,10.60
2010,08,20,07,15,10.60
2010,08,20,07,16,10.60
2010,08,20,07,17,10.60
2010,08,20,07,18,10.60
2010,08,20,07,19,10.60
2010,08,20,07,20,10.60
2010,08,20,07,21,10.60
2010,08,20,07,22,10.60
2010,08,20,07,23,10.60
2010,08,20,07,24,10.60
2010,08,20,07,25,10.60
2010,08,20,07,26,10.60
2010,08,20,07,27,10.60
2010,08,20,07,28,10.70
2010,08,20,07,29,10.70
2010,08,20,07,30,10.70
2010,08,20,07,31,10.70
2010,08,20,07,32,10.70
2010,08,20,07,33,10.70
2010,08,20,07,34,10.80
2010,08,20,07,35,10.80
2010,08,20,07,36,10.80
2010,08,20,07,37,10.80
2010,08,20,07,38,10.90
2010,08,20,07,39,10.90
2010,08,20,07,40,10.90
2010,08,20,07,41,10.90
2010,08,20,07,42,10.90
2010,08,20,07,43,10.90
2010,08,20,07,44,10.90
2010,08,20,07,45,10.90
2010,08,20,07,46,10.90
2010,08,20,07,47,10.90
2010,08,20,07,48,10.90
2010,08,20,07,49,11.00
2010,08,20,07,50,11.10
2010,08,20,07,51,11.10
2010,08,20,07,52,11.10
2010,08,20,07,53,11.10
2010,08,20,07,54,11.10
2010,08,20,07,55,11.10
2010,08,20,07,56,11.10
2010,08,20,07,57,11.10
2010,08,20,07,58,11.10
2010,08,20,07,59,11.10
2010,08,20,08,00,11.20
2010,08,20,08,01,11.20
2010,08,20,08,02,11.20
2010,08,20,08,03,11.20
2010,08,20,08,04,11.20
2010,08,20,08,05,11.30
2010,08,20,08,06,11.30
2010,08,20,08,07,11.30
2010,08,20,08,08,11.30
2010,08,20,08,09,11.30
2010,08,20,08,10,11.40
2010,08,20,08,11,11.40
2010,08,20,08,12,11.40
2010,08,20,08,13,11.40
2010,08,20,08,14,11.50
2010,08,20,08,15,11.60
2010,08,20,08,16,11.60
2010,08,20,08,17,11.60
2010,08,20,08,18,11.60
2010,08,20,08,19,11.60
2010,08,20,08,20,11.70
2010,08,20,08,21,11.70
2010,08,20,08,22,11.70
2010,08,20,08,23,11.80
2010,08,20,08,24,11.80
2010,08,20,08,25,11.80
2010,08,20,08,26,11.80
2010,08,20,08,27,11.80
2010,08,20,08,28,11.90
2010,08,20,08,29,11.90
2010,08,20,08,30,11.90
2010,08,20,08,31,12.00
2010,08,20,08,32,12.00
2010,08,20,08,33,12.00
2010,08,20,08,34,12.10
2010,08,20,08,35,12.10
2010,08,20,08,36,12.10
2010,08,20,08,37,12.20
2010,08,20,08,38,12.20
2010,08,20,08,39,12.20
2010,08,20,08,40,12.20
2010,08,20,08,41,12.30
2010,08,20,08,42,12.30
2010,08,20,08,43,12.30
2010,08,20,08,44,12.30
2010,08,20,08,45,12.30
2010,08,20,08,46,12.40
2010,08,20,08,47,12.40
2010,08,20,08,48,12.40
2010,08,20,08,49,12.50
2010,08,20,08,50,12.50
2010,08,20,08,51,12.50
2010,08,20,08,52,12.50
2010,08,20,08,53,12.60
2010,08,20,08,54,12.60
2010,08,20,08,55,12.60
2010,08,20,08,56,12.70
2010,08,20,08,57,12.70
2010,08,20,08,58,12.70
2010,08,20,08,59,12.80
2010,08,20,09,00,12.80
2010,08,20,09,01,12.80
2010,08,20,09,02,12.80
2010,08,20,09,03,12.80
2010,08,20,09,04,12.80
2010,08,20,09,05,12.80
2010,08,20,09,06,12.80
2010,08,20,09,07,12.80
2010,08,20,09,08,12.80
2010,08,20,09,09,12.80
2010,08,20,09,10,12.90
2010,08,20,09,11,12.90
2010,08,20,09,12,12.90
2010,08,20,09,13,12.90
2010,08,20,09,14,12.90
2010,08,20,09,15,12.90
2010,08,20,09,16,12.90
2010,08,20,09,17,12.90
2010,08,20,09,18,12.90
2010,08,20,09,19,12.90
2010,08,20,09,20,12.90
2010,08,20,09,21,12.90
2010,08,20,09,22,12.90
2010,08,20,09,23,12.90
2010,08,20,09,24,12.90
2010,08,20,09,25,12.90
2010,08,20,09,26,13.00
2010,08,20,09,27,13.00
2010,08,20,09,28,13.00
2010,08,20,09,29,13.00
2010,08,20,09,30,13.00
2010,08,20,09,31,13.00
2010,08,20,09,32,13.00
2010,08,20,09,33,13.10
2010,08,20,09,34,13.10
2010,08,20,09,35,13.10
2010,08,20,09,36,13.10
2010,08,20,09,37,13.10
2010,08,20,09,38,13.10
2010,08,20,09,39,13.10
2010,08,20,09,40,13.10
2010,08,20,09,41,13.20
2010,08,20,09,42,13.20
2010,08,20,09,43,13.20
2010,08,20,09,44,13.20
2010,08,20,09,45,13.20
2010,08,20,09,46,13.20
2010,08,20,09,47,13.30
2010,08,20,09,48,13.30
2010,08,20,09,49,13.30
2010,08,20,09,50,13.30
2010,08,20,09,51,13.30
2010,08,20,09,52,13.30
2010,08,20,09,53,13.30
2010,08,20,09,54,13.40
2010,08,20,09,55,13.40
2010,08,20,09,56,13.40
2010,08,20,09,57,13.40
2010,08,20,09,58,13.50
2010,08,20,09,59,13.50
2010,08,20,10,00,13.50
2010,08,20,10,01,13.50
2010,08,20,10,02,13.50
2010,08,20,10,03,13.60
2010,08,20,10,04,13.60
2010,08,20,10,05,13.60
2010,08,20,10,06,13.60
2010,08,20,10,07,13.70
2010,08,20,10,08,13.70
2010,08,20,10,09,13.70
2010,08,20,10,10,13.70
2010,08,20,10,11,13.70
2010,08,20,10,12,13.70
2010,08,20,10,13,13.70
2010,08,20,10,14,13.80
2010,08,20,10,15,13.80
2010,08,20,10,16,13.80
2010,08,20,10,17,13.80
2010,08,20,10,18,13.80
2010,08,20,10,19,13.90
2010,08,20,10,20,13.90
2010,08,20,10,21,13.90
2010,08,20,10,22,14.00
2010,08,20,10,23,14.00
2010,08,20,10,24,14.00
2010,08,20,10,25,14.10
2010,08,20,10,26,14.10
2010,08,20,10,27,14.20
2010,08,20,10,28,14.20
2010,08,20,10,29,14.20
2010,08,20,10,30,14.30
2010,08,20,10,31,14.30
2010,08,20,10,32,14.30
2010,08,20,10,33,14.40
2010,08,20,10,34,14.40
2010,08,20,10,35,14.50
2010,08,20,10,36,14.50
2010,08,20,10,37,14.50
2010,08,20,10,38,14.60
2010,08,20,10,39,14.60
2010,08,20,10,40,14.60
2010,08,20,10,41,14.70
2010,08,20,10,42,14.70
2010,08,20,10,43,14.70
2010,08,20,10,44,14.70
2010,08,20,10,45,14.80
2010,08,20,10,46,14.80
2010,08,20,10,47,14.80
2010,08,20,10,48,14.80
2010,08,20,10,49,14.80
2010,08,20,10,50,14.80
2010,08,20,10,51,14.80
2010,08,20,10,52,14.80
2010,08,20,10,53,14.80
2010,08,20,10,54,14.80
2010,08,20,10,55,14.80
2010,08,20,10,56,14.80
2010,08,20,10,57,14.80
2010,08,20,10,58,14.80
2010,08,20,10,59,14.80
2010,08,20,11,00,14.90
2010,08,20,11,01,14.90
2010,08,20,11,02,14.90
2010,08,20,11,03,14.90
2010,08,20,11,04,15.00
2010,08,20,11,05,15.00
2010,08,20,11,06,15.00
2010,08,20,11,07,15.10
2010,08,20,11,08,15.10
2010,08,20,11,09,15.10
2010,08,20,11,10,15.20
2010,08,20,11,11,15.20
2010,08,20,11,12,15.20
2010,08,20,11,13,15.30
2010,08,20,11,14,15.30
2010,08,20,11,15,15.30
2010,08,20,11,16,15.30
2010,08,20,11,17,15.40
2010,08,20,11,18,15.40
2010,08,20,11,19,15.50
2010,08,20,11,20,15.50
2010,08,20,11,21,15.60
2010,08,20,11,22,15.60
2010,08,20,11,23,15.60
2010,08,20,11,24,15.60
2010,08,20,11,25,15.60
2010,08,20,11,26,15.60
2010,08,20,11,27,15.60
2010,08,20,11,28,15.60
2010,08,20,11,29,15.60
2010,08,20,11,30,15.60
2010,08,20,11,31,15.70
2010,08,20,11,32,15.70
2010,08,20,11,33,15.70
2010,08,20,11,34,15.80
2010,08,20,11,35,15.80
2010,08,20,11,36,15.80
2010,08,20,11,37,15.80
2010,08,20,11,38,15.90
2010,08,20,11,39,15.90
2010,08,20,11,40,15.90
2010,08,20,11,41,16.00
2010,08,20,11,42,16.10
2010,08,20,11,43,16.10
2010,08,20,11,44,16.10
2010,08,20,11,45,16.10
2010,08,20,11,46,16.10
2010,08,20,11,47,16.20
2010,08,20,11,48,16.20
2010,08,20,11,49,16.30
2010,08,20,11,50,16.30
2010,08,20,11,51,16.40
2010,08,20,11,52,16.40
2010,08,20,11,53,16.40
2010,08,20,11,54,16.40
2010,08,20,11,55,16.40
2010,08,20,11,56,16.40
2010,08,20,11,57,16.40
2010,08,20,11,58,16.40
2010,08,20,11,59,16.40
2010,08,20,12,00,16.40
2010,08,20,12,01,16.40
2010,08,20,12,02,16.40
2010,08,20,12,03,16.50
2010,08,20,12,04,16.60
2010,08,20,12,05,16.60
2010,08,20,12,06,16.70
2010,08,20,12,07,16.70
2010,08,20,12,08,16.80
2010,08,20,12,09,16.90
2010,08,20,12,10,16.90
2010,08,20,12,11,17.00
2010,08,20,12,12,17.00
2010,08,20,12,13,17.10
2010,08,20,12,14,17.10
2010,08,20,12,15,17.20
2010,08,20,12,16,17.20
2010,08,20,12,17,17.20
2010,08,20,12,18,17.20
2010,08,20,12,19,17.20
2010,08,20,12,20,17.20
2010,08,20,12,21,17.20
2010,08,20,12,22,17.20
2010,08,20,12,23,17.20
2010,08,20,12,24,17.20
2010,08,20,12,25,17.20
2010,08,20,12,26,17.10
2010,08,20,12,27,17.10
2010,08,20,12,28,17.10
2010,08,20,12,29,17.10
2010,08,20,12,30,17.10
2010,08,20,12,31,17.00
2010,08,20,12,32,17.00
2010,08,20,12,33,17.00
2010,08,20,12,34,16.90
2010,08,20,12,35,16.90
2010,08,20,12,36,16.90
2010,08,20,12,37,16.90
2010,08,20,12,38,16.90
2010,08,20,12,39,16.90
2010,08,20,12,40,16.90
2010,08,20,12,41,16.90
2010,08,20,12,42,16.90
2010,08,20,12,43,16.90
2010,08,20,12,44,16.90
2010,08,20,12,45,17.00
2010,08,20,12,46,17.00
2010,08,20,12,47,17.10
2010,08,20,12,48,17.10
2010,08,20,12,49,17.20
2010,08,20,12,50,17.20
2010,08,20,12,51,17.20
2010,08,20,12,52,17.20
2010,08,20,12,53,17.10
2010,08,20,12,54,17.10
2010,08,20,12,55,17.00
2010,08,20,12,56,17.00
2010,08,20,12,57,17.00
2010,08,20,12,58,17.10
2010,08,20,12,59,17.20
2010,08,20,13,00,17.30
2010,08,20,13,01,17.30
2010,08,20,13,02,17.40
2010,08,20,13,03,17.40
2010,08,20,13,04,17.50
2010,08,20,13,05,17.50
2010,08,20,13,06,17.60
2010,08,20,13,07,17.60
2010,08,20,13,08,17.60
2010,08,20,13,09,17.70
2010,08,20,13,10,17.70
2010,08,20,13,11,17.80
2010,08,20,13,12,17.80
2010,08,20,13,13,17.90
2010,08,20,13,14,17.90
2010,08,20,13,15,17.90
2010,08,20,13,16,18.00
2010,08,20,13,17,18.20
2010,08,20,13,18,18.20
2010,08,20,13,19,18.40
2010,08,20,13,20,18.50
2010,08,20,13,21,18.50
2010,08,20,13,22,18.60
2010,08,20,13,23,18.70
2010,08,20,13,24,18.70
2010,08,20,13,25,18.70
2010,08,20,13,26,18.80
2010,08,20,13,27,18.90
2010,08,20,13,28,18.90
2010,08,20,13,29,18.90
2010,08,20,13,30,18.90
2010,08,20,13,31,18.90
2010,08,20,13,32,18.90
2010,08,20,13,33,18.90
2010,08,20,13,34,18.90
2010,08,20,13,35,18.90
2010,08,20,13,36,18.90
2010,08,20,13,37,18.90
2010,08,20,13,38,18.80
2010,08,20,13,39,18.80
2010,08,20,13,40,18.80
2010,08,20,13,41,18.80
2010,08,20,13,42,18.70
2010,08,20,13,43,18.70
2010,08,20,13,44,18.80
2010,08,20,13,45,18.90
2010,08,20,13,46,19.00
2010,08,20,13,47,19.10
2010,08,20,13,48,19.20
2010,08,20,13,49,19.30
2010,08,20,13,50,19.30
2010,08,20,13,51,19.40
2010,08,20,13,52,19.50
2010,08,20,13,53,19.50
2010,08,20,13,54,19.50
2010,08,20,13,55,19.50
2010,08,20,13,56,19.50
2010,08,20,13,57,19.50
2010,08,20,13,58,19.60
2010,08,20,13,59,19.70
2010,08,20,14,00,19.70
2010,08,20,14,01,19.80
2010,08,20,14,02,19.80
2010,08,20,14,03,19.80
2010,08,20,14,04,19.80
2010,08,20,14,05,19.70
2010,08,20,14,06,19.70
2010,08,20,14,07,19.60
2010,08,20,14,08,19.60
2010,08,20,14,09,19.50
2010,08,20,14,10,19.50
2010,08,20,14,11,19.40
2010,08,20,14,12,19.40
2010,08,20,14,13,19.40
2010,08,20,14,14,19.40
2010,08,20,14,15,19.40
2010,08,20,14,16,19.30
2010,08,20,14,17,19.40
2010,08,20,14,18,19.40
2010,08,20,14,19,19.50
2010,08,20,14,20,19.50
2010,08,20,14,21,19.60
2010,08,20,14,22,19.60
2010,08,20,14,23,19.70
2010,08,20,14,24,19.70
2010,08,20,14,25,19.60
2010,08,20,14,26,19.60
2010,08,20,14,27,19.50
2010,08,20,14,28,19.50
2010,08,20,14,29,19.50
2010,08,20,14,30,19.50
2010,08,20,14,31,19.50
2010,08,20,14,32,19.60
2010,08,20,14,33,19.50
2010,08,20,14,34,19.60
2010,08,20,14,35,19.60
2010,08,20,14,36,19.60
2010,08,20,14,37,19.70
2010,08,20,14,38,19.70
2010,08,20,14,39,19.70
2010,08,20,14,40,19.60
2010,08,20,14,41,19.50
2010,08,20,14,42,19.50
2010,08,20,14,43,19.40
2010,08,20,14,44,19.30
2010,08,20,14,45,19.30
2010,08,20,14,46,19.30
2010,08,20,14,47,19.20
2010,08,20,14,48,19.20
2010,08,20,14,49,19.20
2010,08,20,14,50,19.30
2010,08,20,14,51,19.30
2010,08,20,14,52,19.40
2010,08,20,14,53,19.40
2010,08,20,14,54,19.50
2010,08,20,14,55,19.40
2010,08,20,14,56,19.40
2010,08,20,14,57,19.30
2010,08,20,14,58,19.20
2010,08,20,14,59,19.20
2010,08,20,15,00,19.20
2010,08,20,15,01,19.30
2010,08,20,15,02,19.30
2010,08,20,15,03,19.40
2010,08,20,15,04,19.40
2010,08,20,15,05,19.40
2010,08,20,15,06,19.40
2010,08,20,15,07,19.50
2010,08,20,15,08,19.50
2010,08,20,15,09,19.60
2010,08,20,15,10,19.60
2010,08,20,15,11,19.60
2010,08,20,15,12,19.60
2010,08,20,15,13,19.60
2010,08,20,15,14,19.60
2010,08,20,15,15,19.50
2010,08,20,15,16,19.50
2010,08,20,15,17,19.40
2010,08,20,15,18,19.40
2010,08,20,15,19,19.40
2010,08,20,15,20,19.40
2010,08,20,15,21,19.50
2010,08,20,15,22,19.50
2010,08,20,15,23,19.60
2010,08,20,15,24,19.60
2010,08,20,15,25,19.60
2010,08,20,15,26,19.60
2010,08,20,15,27,19.60
2010,08,20,15,28,19.60
2010,08,20,15,29,19.60
2010,08,20,15,30,19.60
2010,08,20,15,31,19.60
2010,08,20,15,32,19.60
2010,08,20,15,33,19.60
2010,08,20,15,34,19.60
2010,08,20,15,35,19.60
2010,08,20,15,36,19.70
2010,08,20,15,37,19.70
2010,08,20,15,38,19.60
2010,08,20,15,39,19.60
2010,08,20,15,40,19.50
2010,08,20,15,41,19.40
2010,08,20,15,42,19.30
2010,08,20,15,43,19.20
2010,08,20,15,44,19.10
2010,08,20,15,45,19.10
2010,08,20,15,46,18.90
2010,08,20,15,47,18.90
2010,08,20,15,48,18.90
2010,08,20,15,49,18.90
2010,08,20,15,50,18.90
2010,08,20,15,51,18.90
2010,08,20,15,52,18.90
2010,08,20,15,53,18.90
2010,08,20,15,54,18.90
2010,08,20,15,55,18.90
2010,08,20,15,56,18.90
2010,08,20,15,57,18.90
2010,08,20,15,58,18.90
2010,08,20,15,59,18.90
2010,08,20,16,00,18.90
2010,08,20,16,01,18.90
2010,08,20,16,02,18.90
2010,08,20,16,03,18.90
2010,08,20,16,04,18.90
2010,08,20,16,05,18.90
2010,08,20,16,06,18.90
2010,08,20,16,07,18.80
2010,08,20,16,08,18.80
2010,08,20,16,09,18.70
2010,08,20,16,10,18.70
2010,08,20,16,11,18.70
2010,08,20,16,12,18.60
2010,08,20,16,13,18.60
2010,08,20,16,14,18.60
2010,08,20,16,15,18.50
2010,08,20,16,16,18.50
2010,08,20,16,17,18.50
2010,08,20,16,18,18.40
2010,08,20,16,19,18.40
2010,08,20,16,20,18.30
2010,08,20,16,21,18.30
2010,08,20,16,22,18.30
2010,08,20,16,23,18.20
2010,08,20,16,24,18.20
2010,08,20,16,25,18.20
2010,08,20,16,26,18.20
2010,08,20,16,27,18.20
2010,08,20,16,28,18.20
2010,08,20,16,29,18.20
2010,08,20,16,30,18.20
2010,08,20,16,31,18.20
2010,08,20,16,32,18.20
2010,08,20,16,33,18.20
2010,08,20,16,34,18.20
2010,08,20,16,35,18.20
2010,08,20,16,36,18.20
2010,08,20,16,37,18.20
2010,08,20,16,38,18.20
2010,08,20,16,39,18.30
2010,08,20,16,40,18.30
2010,08,20,16,41,18.30
2010,08,20,16,42,18.30
2010,08,20,16,43,18.30
2010,08,20,16,44,18.30
2010,08,20,16,45,18.40
2010,08,20,16,46,18.40
2010,08,20,16,47,18.50
2010,08,20,16,48,18.50
2010,08,20,16,49,18.50
2010,08,20,16,50,18.60
2010,08,20,16,51,18.60
2010,08,20,16,52,18.60
2010,08,20,16,53,18.70
2010,08,20,16,54,18.70
2010,08,20,16,55,18.80
2010,08,20,16,56,18.80
2010,08,20,16,57,18.80
2010,08,20,16,58,18.90
2010,08,20,16,59,18.90
2010,08,20,17,00,18.90
2010,08,20,17,01,18.90
2010,08,20,17,02,18.90
2010,08,20,17,03,18.90
2010,08,20,17,04,19.10
2010,08,20,17,05,19.10
2010,08,20,17,06,19.10
2010,08,20,17,07,19.10
2010,08,20,17,08,19.10
2010,08,20,17,09,19.10
2010,08,20,17,10,19.10
2010,08,20,17,11,19.10
2010,08,20,17,12,19.10
2010,08,20,17,13,19.10
2010,08,20,17,14,19.10
2010,08,20,17,15,19.10
2010,08,20,17,16,19.10
2010,08,20,17,17,19.10
2010,08,20,17,18,19.10
2010,08,20,17,19,19.10
2010,08,20,17,20,19.10
2010,08,20,17,21,19.10
2010,08,20,17,22,19.00
2010,08,20,17,23,18.90
2010,08,20,17,24,18.90
2010,08,20,17,25,18.90
2010,08,20,17,26,18.90
2010,08,20,17,27,18.90